[[{"header":{"parameterUnit":"m.s-1","parameterCategory":1,"la1":30.2991,"la2":30.254,"lo1":-89.0895,"lo2":-89.0444,"dy":0.0017,"dx":0.0017,"nx":28,"ny":28,"refTime":"2025-09-04T21:00:00:Z","depth":0,"parameterNumber":2,"parameterNumberName":"U-component_of_WINDS"},"data":[0,0,0,0,0,0,0,0,0,0,0,0,0,0,0,0,0,0,0,0,0,0,0,0,0,0,0,0,0,0,0,0,0,0,0,0,0,0,0,0,0,0,0,0,0,0,0,0,0,0,0,0,0,0,0,0,0,0,-1.5741,-1.574,0,-1.5674,-1.5674,-1.5673,-1.5619,-1.5618,-1.5617,-1.5617,-1.5547,-1.5546,-1.5545,0,0,0,0,0,0,0,0,0,0,0,0,0,-1.5822,-1.5821,-1.5741,-1.574,-1.5739,-1.5674,-1.5674,-1.5673,-1.5619,-1.5618,-1.5617,-1.5617,-1.5548,-1.5546,-1.5544,0,0,0,0,0,0,0,0,0,0,0,0,0,-1.5774,-1.582,-1.5741,-1.5705,-1.5701,-1.5675,-1.5674,-1.5672,-1.5619,-1.5618,-1.5617,-1.5616,-1.5548,-1.5546,-1.5544,-1.5549,0,0,-1.5538,-1.5537,0,0,0,0,0,0,0,0,-1.5777,-1.5771,-1.5711,-1.5707,-1.5703,-1.5654,-1.5676,-1.5631,-1.5619,-1.565,-1.5617,-1.5616,-1.5583,-1.5578,-1.5568,-1.5545,-1.5542,-1.5538,-1.5537,-1.5536,-1.5535,0,0,0,0,0,0,0,-1.578,-1.5774,-1.5715,-1.571,-1.5705,-1.5692,-1.5684,-1.5668,-1.5622,-1.5647,-1.5643,-1.5636,-1.5581,-1.557,-1.5566,-1.5541,-1.5538,-1.5536,-1.5535,-1.5534,-1.5522,-1.5523,0,0,0,0,0,0,-1.5789,-1.5777,-1.5717,-1.5713,-1.5739,-1.5691,-1.5682,-1.567,-1.5622,-1.5614,-1.5637,-1.5634,-1.5574,-1.5568,-1.5563,-1.5566,-1.5536,-1.5534,-1.5533,-1.5521,-1.5522,-1.5523,0,0,0,0,0,0,-1.5791,-1.5784,-1.5719,-1.5744,-1.5734,-1.569,-1.5677,-1.567,-1.5658,-1.5614,-1.5606,-1.5634,-1.5573,-1.5566,-1.5553,-1.5563,-1.5533,-1.5531,-1.552,-1.5521,-1.5522,-1.5572,0,0,0,0,0,0,-1.5794,-1.5785,-1.5786,-1.5744,-1.5733,-1.5711,-1.5678,-1.5669,-1.5655,-1.565,-1.5609,-1.5601,-1.5571,-1.5557,-1.5551,-1.5559,-1.553,-1.5519,-1.552,-1.5522,-1.5569,-1.5574,-1.5579,0,0,0,0,0,-1.5797,-1.5802,-1.5787,-1.578,-1.5734,-1.5711,-1.5705,-1.5671,-1.5656,-1.5657,-1.5629,-1.5603,-1.5563,-1.5556,-1.5549,-1.5557,-1.5518,-1.552,-1.5522,-1.5567,-1.5573,-1.5579,0,0,0,0,0,0,-1.5845,-1.5796,-1.5778,-1.577,-1.5745,-1.5702,-1.5702,-1.5679,-1.5657,-1.5654,-1.5612,-1.5603,-1.5596,-1.5575,-1.5568,-1.556,-1.5537,-1.5538,-1.5573,-1.5579,-1.5585,-1.5589,-1.5528,0,0,0,0,0,-1.5856,-1.5842,-1.5799,-1.5796,-1.5785,-1.5746,-1.5735,-1.5711,-1.5684,-1.5673,-1.5644,-1.5618,-1.56,-1.5589,-1.5569,-1.5566,-1.5557,-1.5569,-1.5574,-1.5578,-1.5579,-1.5578,-1.5583,-1.5529,-1.5529,-1.5529,0,0,-1.5875,-1.5847,-1.584,-1.5805,-1.5783,-1.577,-1.5737,-1.5724,-1.5714,-1.567,-1.5657,-1.5636,-1.5604,-1.5597,-1.5592,-1.558,-1.5592,-1.5581,-1.5585,-1.5583,-1.558,-1.5585,-1.559,-1.5531,-1.553,-1.553,0,0,-1.5905,-1.5882,-1.5877,-1.5857,-1.5825,-1.5799,-1.5799,-1.5759,-1.5744,-1.573,-1.5697,-1.5685,-1.5654,-1.5634,-1.562,-1.5645,-1.5621,-1.564,-1.5667,-1.5666,-1.567,-1.5673,-1.5683,-1.5687,-1.5642,-1.5642,-1.5642,0,-1.5934,-1.5913,-1.5878,-1.5867,-1.5853,-1.5815,-1.581,-1.5792,-1.5755,-1.5747,-1.5734,-1.5696,-1.5672,-1.566,-1.5667,-1.5656,-1.5654,-1.5644,-1.5672,-1.5675,-1.5678,-1.5687,-1.5691,-1.5644,-1.5644,-1.5644,-1.5643,0,-1.595,-1.5936,-1.5936,-1.5903,-1.5889,-1.5882,-1.5847,-1.5837,-1.5815,-1.5792,-1.5779,-1.575,-1.5725,-1.572,-1.5698,-1.5706,-1.57,-1.568,-1.5656,-1.5686,-1.5694,-1.5697,-1.5648,-1.5647,-1.5646,-1.5646,0,0,-1.6006,-1.5956,-1.5956,-1.5942,-1.5905,-1.5894,-1.5886,-1.5862,-1.5855,-1.5832,-1.5824,-1.5801,-1.5783,-1.5767,-1.5743,-1.5742,-1.5765,-1.5722,-1.5721,-1.5732,-1.5773,-1.5788,-1.5793,-1.575,-1.575,-1.575,-1.5776,0,-1.603,-1.6013,-1.5982,-1.5975,-1.5963,-1.5928,-1.5921,-1.5898,-1.5876,-1.5863,-1.5839,-1.5823,-1.5801,-1.5791,-1.5789,-1.5763,-1.5773,-1.5761,-1.5742,-1.5742,-1.5751,-1.5796,-1.5811,-1.5837,-1.5779,-1.5779,-1.578,0,-1.6054,-1.6035,-1.6027,-1.5993,-1.5987,-1.5981,-1.5958,-1.5946,-1.592,-1.5904,-1.5888,-1.5862,-1.5852,-1.5832,-1.5818,-1.5811,-1.5802,-1.5788,-1.5789,-1.5785,-1.5762,-1.5794,-1.5844,-1.5848,-1.5784,-1.5784,-1.5783,0,-1.6097,-1.6068,-1.606,-1.6049,-1.6009,-1.6006,-1.5989,-1.5962,-1.5951,-1.5931,-1.5924,-1.5903,-1.5892,-1.5877,-1.5846,-1.5834,-1.5837,-1.5813,-1.5824,-1.5825,-1.5825,-1.5825,-1.5874,-1.582,-1.582,-1.582,-1.582,0,-1.6126,-1.6123,-1.6079,-1.6074,-1.607,-1.6036,-1.6033,-1.6013,-1.599,-1.5981,-1.5949,-1.5941,-1.5902,-1.589,-1.5867,-1.586,-1.5855,-1.5842,-1.5836,-1.5845,-1.5847,-1.5838,-1.5835,-1.5821,-1.5821,-1.5821,-1.582,0,-1.6172,-1.6142,-1.6132,-1.6096,-1.6087,-1.6085,-1.6055,-1.6049,-1.6027,-1.6016,-1.6011,-1.5976,-1.5961,-1.593,-1.5905,-1.5889,-1.5888,-1.5877,-1.5897,-1.5893,-1.5906,-1.5905,-1.5951,-1.5955,-1.5899,-1.5899,-1.59,0,-1.6192,-1.6189,-1.6154,-1.6146,-1.6131,-1.6118,-1.6107,-1.6074,-1.6064,-1.6036,-1.6034,-1.6016,-1.6,-1.5977,-1.5949,-1.5931,-1.5919,-1.5937,-1.5916,-1.5926,-1.592,-1.5921,-1.5921,-1.5941,-1.5942,-1.5942,-1.5943,0,-1.6232,-1.6218,-1.6203,-1.6184,-1.6172,-1.6155,-1.6136,-1.6132,-1.6095,-1.6085,-1.6069,-1.6057,-1.6034,-1.6017,-1.5995,-1.5978,-1.5955,-1.595,-1.5952,-1.596,-1.5972,-1.5966,-1.5909,-1.5949,-1.5948,-1.5948,-1.5947,-1.5947,-1.6266,-1.6262,-1.6237,-1.6222,-1.6205,-1.6189,-1.6183,-1.616,-1.6147,-1.6125,-1.6107,-1.6093,-1.607,-1.6038,-1.6023,-1.6012,-1.6001,-1.6003,-1.6003,-1.6004,-1.6009,-1.5975,-1.6008,-1.6008,-1.6008,-1.6008,-1.6008,0,-1.6304,-1.6287,-1.6274,-1.625,-1.6238,-1.6219,-1.6198,-1.619,-1.6178,-1.6158,-1.6144,-1.6127,-1.6111,-1.6084,-1.6066,-1.6063,-1.6052,-1.6059,-1.6059,-1.6055,-1.602,-1.602,-1.6068,-1.6068,-1.6068,-1.6068,-1.6068,-1.6068,-1.6323,-1.6316,-1.63,-1.6285,-1.6267,-1.6254,-1.6244,-1.623,-1.6214,-1.6196,-1.6184,-1.6166,-1.6143,-1.6124,-1.6109,-1.6102,-1.6096,-1.6107,-1.6096,-1.6063,-1.6058,-1.6052,-1.6052,-1.6107,-1.6107,-1.6133,-1.6133,-1.6133]},{"header":{"parameterUnit":"m.s-1","parameterCategory":1,"la1":30.2991,"la2":30.254,"lo1":-89.0895,"lo2":-89.0444,"dy":0.0017,"dx":0.0017,"nx":28,"ny":28,"refTime":"2025-09-04T21:00:00:Z","depth":0,"parameterNumber":3,"parameterNumberName":"V-component_of_WINDS"},"data":[0,0,0,0,0,0,0,0,0,0,0,0,0,0,0,0,0,0,0,0,0,0,0,0,0,0,0,0,0,0,0,0,0,0,0,0,0,0,0,0,0,0,0,0,0,0,0,0,0,0,0,0,0,0,0,0,0,0,3.0531,3.0531,0,3.0501,3.0501,3.05,3.0533,3.0534,3.0535,3.0537,3.05,3.0498,3.0496,0,0,0,0,0,0,0,0,0,0,0,0,0,3.0611,3.0609,3.0531,3.0531,3.053,3.0501,3.0501,3.05,3.0533,3.0534,3.0536,3.0537,3.05,3.0498,3.0495,0,0,0,0,0,0,0,0,0,0,0,0,0,3.0578,3.0609,3.0531,3.0543,3.0544,3.0501,3.0501,3.05,3.0532,3.0534,3.0536,3.0538,3.0501,3.0498,3.0495,3.0437,0,0,3.0485,3.0484,0,0,0,0,0,0,0,0,3.058,3.0575,3.0542,3.0542,3.0543,3.0523,3.0515,3.0479,3.0532,3.0536,3.0537,3.0539,3.0505,3.0502,3.0492,3.0435,3.0434,3.0485,3.0483,3.0481,3.0481,0,0,0,0,0,0,0,3.0582,3.0576,3.0519,3.0541,3.0542,3.0548,3.0546,3.0509,3.051,3.0536,3.0539,3.0535,3.0506,3.0495,3.0491,3.0433,3.0485,3.0482,3.048,3.0479,3.0327,3.0325,0,0,0,0,0,0,3.0584,3.0578,3.052,3.0518,3.0567,3.0545,3.0542,3.0527,3.0511,3.0511,3.0533,3.0537,3.05,3.0495,3.049,3.0421,3.0481,3.0478,3.0477,3.0329,3.0327,3.0325,0,0,0,0,0,0,3.0585,3.0578,3.0521,3.0549,3.0542,3.0542,3.0525,3.0526,3.0515,3.0509,3.0509,3.0522,3.0501,3.0495,3.045,3.042,3.0477,3.0474,3.0332,3.0329,3.0326,3.0283,0,0,0,0,0,0,3.0587,3.0579,3.0558,3.0548,3.054,3.0483,3.0523,3.0524,3.051,3.0514,3.0498,3.0497,3.0502,3.0455,3.0447,3.0417,3.0472,3.0334,3.033,3.0327,3.0287,3.0279,3.0272,0,0,0,0,0,3.059,3.0545,3.0556,3.0549,3.0515,3.0481,3.0477,3.0485,3.0507,3.0485,3.0482,3.0498,3.0425,3.045,3.0442,3.041,3.0336,3.0331,3.0327,3.029,3.028,3.0272,0,0,0,0,0,0,3.0549,3.0544,3.0557,3.0508,3.0495,3.0487,3.046,3.0474,3.0453,3.0457,3.0466,3.0462,3.0415,3.0408,3.0436,3.0353,3.0384,3.0378,3.0359,3.035,3.0342,3.0344,3.0469,0,0,0,0,0,3.0535,3.051,3.0507,3.0464,3.0457,3.046,3.0445,3.0453,3.0439,3.0433,3.0426,3.0411,3.0385,3.0367,3.0342,3.0286,3.0283,3.026,3.0253,3.0246,3.024,3.021,3.0199,3.0309,3.0309,3.0309,0,0,3.0504,3.0499,3.0482,3.0456,3.0447,3.0419,3.0455,3.0424,3.0403,3.0428,3.0386,3.0381,3.0364,3.0313,3.0291,3.0306,3.0209,3.024,3.0236,3.0233,3.0204,3.0193,3.0184,3.0306,3.0307,3.0307,0,0,3.0435,3.0428,3.0392,3.0383,3.037,3.0372,3.0363,3.0353,3.0351,3.031,3.0328,3.0303,3.0257,3.0245,3.0232,3.0159,3.0172,3.015,3.011,3.008,3.0071,3.0064,3.0037,3.0027,3.0144,3.0144,3.0144,0,3.0398,3.0359,3.0371,3.034,3.0327,3.0351,3.0313,3.0303,3.0281,3.0271,3.0289,3.0234,3.0224,3.0171,3.0153,3.0142,3.0132,3.0152,3.0072,3.0064,3.0057,3.0032,3.0022,3.0142,3.0142,3.0142,3.0142,0,3.0314,3.0287,3.0259,3.024,3.0224,3.019,3.0195,3.0178,3.0187,3.0186,3.0143,3.0133,3.0107,3.0095,3.0102,3.0043,3.0053,3.0071,3.0102,3.0044,3.002,3.0011,3.0138,3.0139,3.014,3.014,0,0,3.0216,3.0206,3.0196,3.0187,3.0175,3.0153,3.012,3.0096,3.008,3.0065,3.0036,2.9998,3.0015,3.0001,3.0007,2.9981,2.9923,3.0003,3.0003,2.9988,2.9856,2.9842,2.983,2.9933,2.9931,2.993,2.9857,0,3.0146,3.009,3.0101,3.0045,3.002,3.0042,3.0012,3.0001,2.9999,2.9976,2.9974,2.9947,2.9972,2.9964,2.994,2.9936,2.9897,2.9941,2.9904,2.9903,2.9907,2.9818,2.9803,2.9735,2.9848,2.9847,2.9845,0,3.0057,3.0041,2.9983,2.9975,2.9965,2.9939,2.9918,2.9896,2.9883,2.9884,2.9869,2.988,2.9845,2.9878,2.9828,2.9858,2.9844,2.984,2.9837,2.9833,2.987,2.9811,2.9714,2.9703,2.9831,2.9832,2.9833,0,2.9991,2.9954,2.9915,2.9908,2.9898,2.9878,2.9873,2.9862,2.9847,2.9829,2.9819,2.9796,2.9783,2.9764,2.9768,2.9792,2.9717,2.9751,2.9716,2.9716,2.9698,2.9699,2.9596,2.969,2.969,2.9691,2.9691,0,2.9911,2.9875,2.9886,2.9862,2.9821,2.9833,2.9792,2.9789,2.9779,2.9754,2.9771,2.9746,2.9754,2.9729,2.9732,2.969,2.9684,2.9683,2.9684,2.9681,2.9681,2.9671,2.9675,2.9688,2.9688,2.9689,2.9689,0,2.983,2.9836,2.9795,2.979,2.9788,2.9758,2.9753,2.9729,2.973,2.9698,2.969,2.9691,2.9663,2.9666,2.9633,2.9635,2.9583,2.959,2.9588,2.959,2.9554,2.9557,2.9441,2.9426,2.953,2.9529,2.9528,0,2.9779,2.9752,2.9744,2.9729,2.9723,2.9699,2.9685,2.9695,2.9679,2.9662,2.964,2.9614,2.9594,2.9547,2.9543,2.9519,2.9525,2.9486,2.9521,2.9519,2.9523,2.9525,2.9522,2.9478,2.9477,2.9476,2.9475,0,2.9686,2.9691,2.9671,2.9652,2.9635,2.962,2.9606,2.9593,2.9601,2.9582,2.9555,2.9539,2.9507,2.948,2.9457,2.945,2.9463,2.9465,2.9455,2.9451,2.9451,2.945,2.9569,2.9467,2.9468,2.9468,2.9469,2.9469,2.9618,2.9595,2.9586,2.9563,2.9555,2.9542,2.952,2.9519,2.9497,2.9473,2.948,2.9449,2.9436,2.9406,2.9397,2.9371,2.9385,2.9371,2.9368,2.9364,2.936,2.9456,2.9367,2.9367,2.9367,2.9367,2.9368,0,2.9526,2.9522,2.9501,2.9482,2.9464,2.9481,2.9467,2.945,2.9423,2.9411,2.9391,2.9359,2.9333,2.9328,2.9304,2.9284,2.9289,2.9277,2.9278,2.9276,2.9349,2.9359,2.9273,2.9273,2.9273,2.9273,2.9273,2.9273,2.9476,2.9438,2.9442,2.9399,2.9395,2.9366,2.9357,2.9344,2.9335,2.9299,2.9279,2.9277,2.9267,2.9242,2.9219,2.9218,2.9207,2.9192,2.9193,2.9261,2.9271,2.928,2.929,2.919,2.919,2.9122,2.9122,2.9121]}]]